Terug naar catalogus

ONEWEB-0653

ActiefCommunicatiePO
NORAD 55815·PAYLOAD·🇬🇧 United Kingdom

Gelanceerd Mar 9, 2023 vanaf Cape Canaveral Space Force Station

Loading…

Volgende Passages (komende 24 uur)

TLE

VersSource: CelesTrak SupGP

Epoch: Sep 14, 2026, 21:43 UTC

1 55815C 23029V   26257.90505046  .00002993  00000+0  80824-2 0  2574
2 55815  87.8890 271.8164 0002047  93.0099 304.8522 13.14498517    16

Volg ONEWEB-0653 in realtime met AllMySat

Download on the App Store